Regional Weather Roundup
Issued by NWS Bismarck, ND

Home | Current Version | Previous Version | Text Only | Print | Product List | Glossary On
Versions: 1 2 3 4 5 6 7 8 9 10 11 12 13 14 15 16 17 18 19 20 21 22 23 24 25 26 27 28 29 30 31 32 33 34 35 36 37 38 39 40 41 42 43 44 45 46 47 48 49 50
000
ASUS43 KBIS 241610
RWRBIS

NWR BROADCAST TEXT
NATIONAL WEATHER SERVICE BISMARCK ND
1100 AM CDT THU MAY 24 2018

NOTE: "FAIR" INDICATES FEW OR NO CLOUDS BELOW 12,000 FEET WITH NO
SIGNIFICANT WEATHER AND/OR OBSTRUCTIONS TO VISIBILITY.


CITY           SKY/WX    TMP DP  RH WIND       PRES   REMARKS
WILLISTON      CLOUDY    68  61  78 SW10      29.77S
MINOT          SUNNY     78  57  48 S7        29.73F
MINOT AFB      SUNNY     78  58  49 W7        29.71F
BISMARCK       SUNNY     75  57  53 SW12      29.79F
DICKINSON      MOSUNNY   72  53  51 W12G21    29.81S
GARRISON         N/A     76  54  46 SW14      29.75F
HETTINGER ARPT SUNNY     73  52  47 W17       29.85S
JAMESTOWN      MOSUNNY   75  59  57 S16G24    29.82F
CARRINGTON     FAIR      77  57  50 SW12      29.83S
HAZEN          FAIR      77  54  44 W14G21    29.78F
LINTON         FAIR     N/A N/A N/A SW13G18   29.84S
OAKES            N/A     68  66  94 S10       29.88F
STANLEY          N/A     73  61  64 W9        29.78F HAZE
TIOGA          FAIR      68  68 100 SW10G16   29.77F
WATFORD CITY   FAIR      70  59  68 SW13      29.77F
$$

CITY           SKY/WX    TMP DP  RH WIND       PRES   REMARKS
GRAND FORKS    PTSUNNY   80  65  59 SW16G29   29.78F
GRAND FORKS AF FAIR      81  62  51 SW17      29.79S
DEVILS LAKE    FAIR      74  60  61 SW10      29.80F
FARGO          LGT RAIN  74  65  73 SW20G26   29.85S
CANDO          FAIR      72  72 100 S10       29.80F
CAVALIER         N/A     77  64  65 VRB7      29.77F
GRAFTON        FAIR      75  68  78 S9        29.81F
GWINNER          N/A     70  61  73 SW9       29.87F
LANGDON        FAIR      77  63  61 S16       29.79F
ROLLA          FAIR      70  70 100 S14G21    29.78F
WALHALLA       FAIR      75  68  78 CALM      29.78F
$$

CITY           SKY/WX    TMP DP  RH WIND       PRES   REMARKS
ABERDEEN       PTSUNNY   81  57  43 SW14G20   29.88F
MOBRIDGE       SUNNY     76  60  57 SW10      29.82F
BUFFALO          N/A     71  51  49 W21       29.82F
RAPID CITY     SUNNY     74  53  48 E3        29.91F
GLASGOW        PTSUNNY   69  59  70 VRB5      29.78F
SIDNEY         MOSUNNY   66  59  78 SW13      29.79S
WOLF POINT     PTSUNNY   66  60  81 W12       29.79S
GLENDIVE       PTSUNNY   68  60  75 W12       29.83S
MILES CITY     MOSUNNY   67  58  72 W12       29.86S
BAKER          MOSUNNY   65  57  75 W15       29.87S
$$

CITY           SKY/WX    TMP DP  RH WIND       PRES   REMARKS
BILLINGS       MOSUNNY   67  53  61 SW16      29.92F
GREAT FALLS    SUNNY     71  48  43 SW22G31   29.87R
REGINA         PTSUNNY   66  59  77 SW6       29.74S
ESTEVAN        MOSUNNY   75  55  50 SW7       29.73F
$$





USA.gov is the U.S. government's official web portal to all federal, state and local government web resources and services.